Overview Statistics Trail Chart Weather Telemetry Raw packets
 

This is the latest recevied weather packets stored in our database for station/object N5PUP-13. If no packets are shown the sender has not sent any weather packets the latest 10 day(s).

<< 98 99 100 101 102 103 104 >>
Time Temp. Humidity Pressure Rain* Wind** Luminosity Snow
1787834700 25° C 63% 1020.1 hPa 0 mm - - -
1787834400 25° C 66% 1020.2 hPa 0 mm - - -
1787834100 24.44° C 66% 1020 hPa 0 mm - - -
1787833800 24.44° C 66% 1020 hPa 0 mm - - -
1787833500 24.44° C 67% 1019.7 hPa 0 mm - - -
1787833200 23.89° C 67% 1019.7 hPa 0 mm - - -
1787832900 23.89° C 69% 1019.9 hPa 0 mm - - -
1787832600 23.89° C 69% 1019.6 hPa 0 mm - - -
1787832300 23.33° C 71% 1019.8 hPa 0 mm - - -
1787832000 23.33° C 70% 1019.3 hPa 0 mm - - -
1787831700 22.78° C 72% 1018.9 hPa 0 mm - - -
1787831400 23.33° C 72% 1018.8 hPa 0 mm - - -
1787831100 23.33° C 71% 1018.5 hPa 0 mm - - -
1787830800 23.33° C 71% 1018.3 hPa 0 mm - - -
1787830500 23.33° C 71% 1018.2 hPa 0 mm - - -
1787830200 23.33° C 71% 1018.1 hPa 0 mm - - -
1787829900 23.33° C 72% 1018.1 hPa 0 mm - - -
1787829600 23.33° C 74% 1018.2 hPa 0 mm - - -
1787829300 23.33° C 74% 1018.2 hPa 0 mm - - -
1787829000 23.33° C 74% 1018.2 hPa 0 mm - - -
1787828700 23.33° C 75% 1018.2 hPa 0 mm - - -
1787828400 23.33° C 76% 1018.1 hPa 0 mm - - -
1787828100 23.33° C 75% 1018.1 hPa 0 mm - - -
1787827800 23.33° C 75% 1018.1 hPa 0 mm - - -
1787827500 23.33° C 74% 1018.1 hPa 0 mm - - -

* Rain latest hour (hover to see other rain measurements)
** Current wind speed in m/s (hover to see current wind gust speed)